Back to catalog

SL-8 R/B

AlivePO
NORAD 20046·ROCKET BODY·🇷🇺 Russia

Launched Jun 7, 1989 from Plesetsk Cosmodrome

Loading…

Next Passes (next 24 hours)

TLE

FreshSource: Space-Track

Epoch: Sep 14, 2026, 13:18 UTC

1 20046U 89042B   26257.55442579  .00000112  00000-0  94691-4 0  9995
2 20046  82.9361 305.9911 0040913 319.3216  40.4888 13.78652958874154

Track SL-8 R/B in real time with AllMySat

Download on the App Store